TimeCST,TemperatureF,Dew PointF,Humidity,Sea Level PressureIn,VisibilityMPH,Wind Direction,Wind SpeedMPH,Gust SpeedMPH,PrecipitationIn,Events,Conditions,WindDirDegrees,DateUTC
12:53 AM,45.0,39.9,82,30.13,10.0,Calm,Calm,-,N/A,,Clear,0,2013-01-21 06:53:00
1:53 AM,44.1,39.0,82,30.14,10.0,Calm,Calm,-,N/A,,Clear,0,2013-01-21 07:53:00
2:53 AM,45.0,41.0,86,30.14,10.0,Calm,Calm,-,N/A,,Clear,0,2013-01-21 08:53:00
3:53 AM,45.0,39.9,82,30.15,10.0,Calm,Calm,-,N/A,,Clear,0,2013-01-21 09:53:00
4:53 AM,43.0,37.9,82,30.15,10.0,Calm,Calm,-,N/A,,Clear,0,2013-01-21 10:53:00
5:53 AM,43.0,39.0,86,30.16,10.0,Calm,Calm,-,N/A,,Clear,0,2013-01-21 11:53:00
6:54 AM,41.0,37.0,86,30.19,10.0,Calm,Calm,-,N/A,,Unknown,0,2013-01-21 12:54:00
7:53 AM,42.1,37.9,85,30.21,10.0,NE,3.5,-,N/A,,Clear,40,2013-01-21 13:53:00
8:53 AM,50.0,43.0,77,30.22,10.0,Calm,Calm,-,N/A,,Clear,0,2013-01-21 14:53:00
9:53 AM,57.9,39.9,51,30.25,10.0,Variable,3.5,-,N/A,,Clear,0,2013-01-21 15:53:00
10:53 AM,59.0,39.9,49,30.26,10.0,North,8.1,-,N/A,,Clear,10,2013-01-21 16:53:00
11:53 AM,63.0,39.9,43,30.24,10.0,NE,6.9,-,N/A,,Clear,40,2013-01-21 17:53:00
12:53 PM,64.0,39.0,40,30.22,10.0,East,9.2,-,N/A,,Clear,90,2013-01-21 18:53:00
1:53 PM,66.0,39.9,38,30.20,10.0,North,-9999.0,-,N/A,,Clear,0,2013-01-21 19:53:00
2:53 PM,66.9,41.0,39,30.19,10.0,NE,6.9,-,N/A,,Clear,50,2013-01-21 20:53:00
3:53 PM,66.9,39.9,37,30.19,10.0,Variable,4.6,-,N/A,,Clear,0,2013-01-21 21:53:00
4:53 PM,66.0,39.9,38,30.19,10.0,East,8.1,-,N/A,,Clear,90,2013-01-21 22:53:00
5:53 PM,62.1,41.0,46,30.19,10.0,NE,5.8,-,N/A,,Clear,50,2013-01-21 23:53:00
6:53 PM,57.0,41.0,55,30.21,10.0,NE,6.9,-,N/A,,Clear,50,2013-01-22 00:53:00
7:53 PM,54.0,39.9,59,30.22,10.0,NE,5.8,-,N/A,,Clear,50,2013-01-22 01:53:00
8:53 PM,53.1,37.9,57,30.22,10.0,NE,5.8,-,N/A,,Clear,50,2013-01-22 02:53:00
9:53 PM,51.1,37.0,59,30.22,10.0,NE,6.9,-,N/A,,Clear,40,2013-01-22 03:53:00
10:53 PM,50.0,36.0,59,30.22,10.0,NE,5.8,-,N/A,,Clear,50,2013-01-22 04:53:00
11:53 PM,50.0,34.0,54,30.22,10.0,ENE,5.8,-,N/A,,Clear,60,2013-01-22 05:53:00